�N����,�����b,�ŏ������i�x�j,���ϕ����i�x�j,�ő啗���i�x�j,�ŏ�����(m/s),���ϕ���(m/s),�ő啗��(m/s),�C��(���j,���x�i���j,�C��(hPa),�~�J��(mm),�~�J����(�b�j,�~�J���x(mm/h),�ő�~�J���x(mm/h),�~�Ђ傤��(hit/���u),�~�Ђ傤����(�b�j,�~�Ђ傤���x(hit/���uh),�ő�~�Ђ傤���x(hit/���uh),�q�[�^���x(���j,�q�[�^�[�d���iV),�d���d���iV),�Q�Ɠd���iV)
2015/07/01,00:00:01,219,224,229,5.8,6.0,6.4,28.7,84.8,998.2,0.00,0,0.0,////,0.0,0,0.0,////,27.7,0.0,12.3,3.511
2015/07/01,00:10:01,204,213,217,5.5,5.7,5.9,28.6,84.8,998.2,0.00,0,0.0,////,0.0,0,0.0,////,27.9,0.0,12.3,3.511
2015/07/01,00:20:01,210,221,233,4.3,4.7,5.2,28.6,85.1,998.2,0.00,0,0.0,////,0.0,0,0.0,////,27.7,0.0,12.3,3.511
2015/07/01,00:30:01,217,221,228,3.4,4.6,5.8,28.6,85.5,998.2,0.00,0,0.0,////,0.0,0,0.0,////,27.5,0.0,12.3,3.511
2015/07/01,00:40:01,204,210,215,4.0,4.5,5.1,28.6,85.6,998.1,0.00,0,0.0,////,0.0,0,0.0,////,27.5,0.0,12.3,3.511
2015/07/01,00:50:01,200,216,234,5.9,6.2,6.7,28.6,85.7,997.8,0.00,0,0.0,////,0.0,0,0.0,////,27.5,0.0,12.3,3.511
2015/07/01,01:00:01,196,209,223,2.1,2.8,3.6,28.6,86.1,997.9,0.00,0,0.0,////,0.0,0,0.0,////,27.5,0.0,12.3,3.513
2015/07/01,01:10:01,220,230,237,4.0,4.4,5.0,28.6,85.6,997.8,0.00,0,0.0,////,0.0,0,0.0,////,27.5,0.0,12.3,3.513
2015/07/01,01:20:01,215,230,245,3.5,3.6,3.8,28.7,85.3,997.7,0.00,0,0.0,////,0.0,0,0.0,////,27.5,0.0,12.4,3.514
2015/07/01,01:30:01,214,228,239,2.7,3.7,4.7,28.7,85.5,997.5,0.00,0,0.0,////,0.0,0,0.0,////,27.5,0.0,12.3,3.513
2015/07/01,01:40:01,197,207,215,5.5,6.4,7.4,28.8,84.2,997.4,0.00,0,0.0,////,0.0,0,0.0,////,27.7,0.0,12.3,3.513
2015/07/01,01:50:01,212,218,226,5.0,6.3,7.4,28.8,83.5,997.4,0.00,0,0.0,////,0.0,0,0.0,////,27.7,0.0,12.3,3.511
2015/07/01,02:00:01,190,209,225,4.4,4.9,5.2,28.7,84.3,997.3,0.00,0,0.0,////,0.0,0,0.0,////,27.7,0.0,12.3,3.513
2015/07/01,02:10:01,183,201,217,2.6,3.9,5.6,28.7,84.7,997.2,0.00,0,0.0,////,0.0,0,0.0,////,27.7,0.0,12.3,3.514
2015/07/01,02:20:01,206,220,228,4.2,4.5,5.0,28.7,84.5,997.0,0.00,0,0.0,////,0.0,0,0.0,////,27.7,0.0,12.3,3.513
2015/07/01,02:30:01,179,219,240,2.3,2.8,3.7,28.7,84.4,996.9,0.00,0,0.0,////,0.0,0,0.0,////,27.5,0.0,12.3,3.513
2015/07/01,02:40:01,210,219,230,2.6,3.9,5.5,28.7,85.1,996.9,0.00,0,0.0,////,0.0,0,0.0,////,27.7,0.0,12.2,3.513
2015/07/01,02:50:01,217,221,226,2.6,2.8,3.2,28.7,85.1,996.9,0.00,0,0.0,////,0.0,0,0.0,////,27.9,0.0,12.3,3.513
2015/07/01,03:00:01,236,239,242,2.6,3.2,3.8,28.6,84.5,996.7,0.00,0,0.0,////,0.0,0,0.0,////,27.9,0.0,12.3,3.513
2015/07/01,03:10:01,221,223,226,4.3,5.5,6.5,28.6,84.7,996.8,0.00,0,0.0,////,0.0,0,0.0,////,27.7,0.0,12.3,3.513
2015/07/01,03:20:01,213,215,216,6.0,6.5,6.8,28.7,84.5,996.9,0.00,0,0.0,////,0.0,0,0.0,////,27.5,0.0,12.3,3.514
2015/07/01,03:30:01,202,217,228,4.0,4.8,5.6,28.6,84.2,996.9,0.00,0,0.0,////,0.0,0,0.0,////,27.7,0.0,12.3,3.511
2015/07/01,03:40:01,212,224,245,5.3,6.9,7.8,28.7,83.7,996.8,0.00,0,0.0,////,0.0,0,0.0,////,27.7,0.0,12.3,3.511
2015/07/01,03:50:01,229,237,247,4.3,4.7,5.1,28.7,84.0,996.9,0.00,0,0.0,////,0.0,0,0.0,////,27.7,0.0,12.3,3.511
2015/07/01,04:00:01,200,208,221,4.1,4.6,5.2,28.6,84.1,996.8,0.00,0,0.0,////,0.0,0,0.0,////,28.1,0.0,12.3,3.511
2015/07/01,04:10:01,223,231,240,4.9,5.4,5.9,28.6,83.8,996.8,0.00,0,0.0,////,0.0,0,0.0,////,27.5,0.0,12.3,3.514
2015/07/01,04:20:01,226,239,253,4.7,6.0,6.8,28.6,83.6,996.8,0.00,0,0.0,////,0.0,0,0.0,////,27.5,0.0,12.3,3.513
2015/07/01,04:30:01,220,227,234,2.9,3.3,3.8,28.6,84.5,996.8,0.00,0,0.0,////,0.0,0,0.0,////,27.5,0.0,12.3,3.513
2015/07/01,04:40:01,222,235,249,4.9,5.8,6.6,28.6,83.8,996.7,0.00,0,0.0,////,0.0,0,0.0,////,27.4,0.0,12.3,3.514
2015/07/01,04:50:01,226,235,244,3.9,4.2,4.5,28.6,83.9,996.8,0.00,0,0.0,////,0.0,0,0.0,////,27.7,0.0,12.3,3.513
2015/07/01,05:00:01,205,221,243,2.3,3.1,4.5,28.6,84.5,996.8,0.00,0,0.0,////,0.0,0,0.0,////,27.5,0.0,12.3,3.511
2015/07/01,05:10:01,216,219,222,2.9,3.8,4.8,28.5,84.6,996.8,0.00,0,0.0,////,0.0,0,0.0,////,27.5,0.0,12.3,3.511
2015/07/01,05:20:01,204,212,217,2.7,3.4,3.7,28.5,84.1,996.7,0.00,0,0.0,////,0.0,0,0.0,////,27.5,0.0,12.3,3.513
2015/07/01,05:30:01,219,222,229,3.2,4.1,6.3,28.5,83.1,996.7,0.00,0,0.0,////,0.0,0,0.0,////,27.5,0.0,12.3,3.513
2015/07/01,05:40:01,198,214,235,2.9,3.9,4.6,28.5,83.4,996.7,0.00,0,0.0,////,0.0,0,0.0,////,27.5,0.0,12.3,3.514
2015/07/01,05:50:01,196,205,212,2.7,3.3,3.7,28.5,83.1,996.8,0.00,0,0.0,////,0.0,0,0.0,////,27.5,0.0,12.3,3.513
2015/07/01,06:00:01,204,207,211,3.7,4.3,5.3,28.4,83.4,997.0,0.00,0,0.0,////,0.0,0,0.0,////,27.5,0.0,12.3,3.511
2015/07/01,06:10:01,201,219,239,2.8,3.0,3.1,28.4,83.7,997.0,0.00,0,0.0,////,0.0,0,0.0,////,27.5,0.0,12.3,3.511
2015/07/01,06:20:01,206,209,219,5.8,7.3,8.5,28.4,83.2,996.9,0.00,0,0.0,////,0.0,0,0.0,////,27.4,0.0,12.3,3.513
2015/07/01,06:30:01,192,202,216,3.0,4.2,5.1,28.5,83.4,997.0,0.00,0,0.0,////,0.0,0,0.0,////,27.9,0.0,12.3,3.513
2015/07/01,06:40:01,213,217,219,3.0,3.5,4.0,28.5,82.6,996.9,0.00,0,0.0,////,0.0,0,0.0,////,28.1,0.0,12.3,3.514
2015/07/01,06:50:01,197,210,220,2.2,3.5,4.6,28.6,82.6,997.1,0.00,0,0.0,////,0.0,0,0.0,////,28.1,0.0,12.3,3.513
2015/07/01,07:00:01,223,232,243,4.8,5.2,5.8,28.6,82.5,997.1,0.00,0,0.0,////,0.0,0,0.0,////,28.1,0.0,12.3,3.513
2015/07/01,07:10:01,215,216,217,5.0,5.5,6.1,28.7,81.7,997.1,0.00,0,0.0,////,0.0,0,0.0,////,28.6,0.0,12.3,3.514
2015/07/01,07:20:01,216,222,228,5.8,6.7,7.8,29.0,81.0,997.1,0.00,0,0.0,////,0.0,0,0.0,////,29.6,0.0,12.3,3.513
2015/07/01,07:30:01,224,227,229,4.7,5.5,6.1,29.1,80.2,997.0,0.00,0,0.0,////,0.0,0,0.0,////,30.1,0.0,12.3,3.513
2015/07/01,07:40:01,229,230,230,5.5,6.1,6.8,29.2,79.4,997.0,0.00,0,0.0,////,0.0,0,0.0,////,30.1,0.0,12.3,3.513
2015/07/01,07:50:01,213,226,240,5.6,6.0,6.4,29.3,79.4,997.0,0.00,0,0.0,////,0.0,0,0.0,////,30.3,0.0,12.3,3.511
2015/07/01,08:00:01,228,230,233,4.3,5.2,6.2,29.4,78.0,996.9,0.00,0,0.0,////,0.0,0,0.0,////,30.6,0.0,12.3,3.513
2015/07/01,08:10:01,226,228,230,3.3,3.6,3.8,29.5,77.0,997.0,0.00,0,0.0,////,0.0,0,0.0,////,30.8,0.0,12.3,3.513
2015/07/01,08:20:01,220,226,239,6.0,6.2,6.6,29.7,76.5,997.0,0.00,0,0.0,////,0.0,0,0.0,////,31.0,0.0,12.3,3.511
2015/07/01,08:30:01,229,234,240,5.7,6.2,7.0,29.7,76.0,997.0,0.00,0,0.0,////,0.0,0,0.0,////,31.2,0.0,12.3,3.513
2015/07/01,08:40:01,217,222,227,3.3,4.7,5.8,29.9,76.6,997.2,0.00,0,0.0,////,0.0,0,0.0,////,31.7,0.0,12.3,3.513
2015/07/01,08:50:01,225,231,242,5.5,6.1,6.4,30.0,75.8,997.3,0.00,0,0.0,////,0.0,0,0.0,////,31.7,0.0,12.3,3.511
2015/07/01,09:00:01,215,220,226,5.4,5.8,6.1,30.1,76.4,997.3,0.00,0,0.0,////,0.0,0,0.0,////,31.8,0.0,12.3,3.511
2015/07/01,09:10:01,226,228,231,3.4,4.2,4.8,30.2,76.8,997.3,0.00,0,0.0,////,0.0,0,0.0,////,31.8,0.0,12.3,3.513
2015/07/01,09:20:01,226,246,266,4.6,5.8,6.7,30.3,76.1,997.2,0.00,0,0.0,////,0.0,0,0.0,////,32.0,0.0,12.3,3.511
2015/07/01,09:30:01,234,243,258,5.4,5.5,5.7,30.4,76.0,997.2,0.00,0,0.0,////,0.0,0,0.0,////,32.5,0.0,12.3,3.511
2015/07/01,09:40:01,225,234,244,5.1,6.1,7.8,30.5,73.0,997.1,0.00,0,0.0,////,0.0,0,0.0,////,32.4,0.0,12.3,3.511
2015/07/01,09:50:01,222,234,240,5.0,5.5,6.3,30.6,75.2,997.0,0.00,0,0.0,////,0.0,0,0.0,////,32.4,0.0,12.3,3.511
2015/07/01,10:00:01,219,227,234,6.4,6.9,7.2,30.7,73.6,997.0,0.00,0,0.0,////,0.0,0,0.0,////,32.7,0.0,12.3,3.511
2015/07/01,10:10:01,222,226,231,3.2,4.6,6.0,30.7,73.1,996.9,0.00,0,0.0,////,0.0,0,0.0,////,32.5,0.0,12.3,3.513
2015/07/01,10:20:01,222,230,244,6.1,6.6,7.3,30.9,73.0,996.8,0.00,0,0.0,////,0.0,0,0.0,////,33.1,0.0,12.3,3.511
2015/07/01,10:30:01,212,215,221,5.5,6.0,6.8,31.0,72.0,996.9,0.00,0,0.0,////,0.0,0,0.0,////,33.1,0.0,12.3,3.513
2015/07/01,10:40:01,241,246,250,6.2,7.2,8.3,31.1,72.1,996.7,0.00,0,0.0,////,0.0,0,0.0,////,33.2,0.0,12.3,3.510
2015/07/01,10:50:01,227,232,236,4.0,4.5,5.0,31.2,72.6,996.7,0.00,0,0.0,////,0.0,0,0.0,////,33.4,0.0,12.3,3.513
2015/07/01,11:00:01,215,224,232,5.1,5.7,6.6,31.2,71.9,996.7,0.00,0,0.0,////,0.0,0,0.0,////,33.6,0.0,12.3,3.510
2015/07/01,11:10:01,228,238,242,8.4,8.9,9.4,31.2,72.5,996.8,0.00,0,0.0,////,0.0,0,0.0,////,33.2,0.0,12.3,3.511
2015/07/01,11:20:01,236,240,243,5.5,6.5,7.5,31.1,72.6,996.7,0.00,0,0.0,////,0.0,0,0.0,////,33.2,0.0,12.3,3.511
2015/07/01,11:30:01,224,234,247,5.2,6.4,7.6,31.3,72.0,996.8,0.00,0,0.0,////,0.0,0,0.0,////,33.2,0.0,12.3,3.511
2015/07/01,11:40:01,237,240,242,6.6,7.1,7.6,31.4,71.9,996.8,0.00,0,0.0,////,0.0,0,0.0,////,33.6,0.0,12.3,3.511
2015/07/01,11:50:01,235,241,252,6.7,7.2,7.8,31.2,71.9,996.7,0.00,0,0.0,////,0.0,0,0.0,////,32.9,0.0,12.3,3.511
2015/07/01,12:00:01,225,233,242,9.8,10.5,11.2,31.0,73.4,996.8,0.00,0,0.0,////,0.0,0,0.0,////,32.7,0.0,12.3,3.513
2015/07/01,12:10:01,235,243,247,7.6,8.1,8.8,30.9,74.0,996.8,0.00,0,0.0,////,0.0,0,0.0,////,32.2,0.0,12.3,3.511
2015/07/01,12:20:01,239,244,255,8.1,9.9,10.8,30.9,73.3,996.9,0.00,0,0.0,////,0.0,0,0.0,////,32.5,0.0,12.3,3.511
2015/07/01,12:30:01,227,237,246,7.0,8.8,10.9,31.1,72.5,996.9,0.00,0,0.0,////,0.0,0,0.0,////,32.9,0.0,12.3,3.511
2015/07/01,12:40:01,218,224,227,5.4,7.0,8.6,31.1,73.9,996.9,0.00,0,0.0,////,0.0,0,0.0,////,32.7,0.0,12.3,3.513
2015/07/01,12:50:01,226,240,249,8.0,9.7,10.5,31.2,72.7,996.8,0.00,0,0.0,////,0.0,0,0.0,////,33.1,0.0,12.3,3.511
2015/07/01,13:00:01,228,232,237,6.3,7.1,7.8,31.4,72.7,996.8,0.00,0,0.0,////,0.0,0,0.0,////,33.4,0.0,12.3,3.511
2015/07/01,13:10:01,231,240,252,5.1,6.5,7.7,31.3,73.2,996.8,0.00,0,0.0,////,0.0,0,0.0,////,33.1,0.0,12.3,3.513
2015/07/01,13:20:01,213,222,232,5.2,6.0,6.9,31.3,73.5,996.8,0.00,0,0.0,////,0.0,0,0.0,////,33.1,0.0,12.3,3.513
2015/07/01,13:30:01,222,231,238,6.6,7.3,8.4,31.4,73.7,996.7,0.00,0,0.0,////,0.0,0,0.0,////,33.2,0.0,12.3,3.511
2015/07/01,13:40:01,225,233,242,6.1,6.8,7.3,31.3,74.1,996.7,0.00,0,0.0,////,0.0,0,0.0,////,33.1,0.0,12.3,3.511
2015/07/01,13:50:01,203,221,238,3.8,5.2,7.1,31.3,74.6,996.8,0.00,0,0.0,////,0.0,0,0.0,////,33.1,0.0,12.3,3.513
2015/07/01,14:00:01,221,230,236,7.9,8.6,9.3,31.2,74.9,996.8,0.00,0,0.0,////,0.0,0,0.0,////,32.7,0.0,12.3,3.510
2015/07/01,14:10:01,228,236,247,7.2,8.0,8.8,31.0,75.6,996.8,0.00,0,0.0,////,0.0,0,0.0,////,32.4,0.0,12.3,3.511
2015/07/01,14:20:01,235,241,244,3.6,4.6,5.3,31.2,75.4,996.7,0.00,0,0.0,////,0.0,0,0.0,////,32.5,0.0,12.3,3.510
2015/07/01,14:30:01,230,238,244,6.9,7.2,7.5,31.3,74.3,996.7,0.00,0,0.0,////,0.0,0,0.0,////,32.9,0.0,12.3,3.511
2015/07/01,14:40:01,238,250,263,3.2,4.5,6.3,31.3,74.9,996.6,0.00,0,0.0,////,0.0,0,0.0,////,32.7,0.0,12.3,3.510
2015/07/01,14:50:01,232,240,246,6.9,7.6,8.5,31.3,75.0,996.7,0.00,0,0.0,////,0.0,0,0.0,////,33.1,0.0,12.3,3.511
2015/07/01,15:00:01,211,226,243,3.1,4.5,5.7,31.5,74.8,996.7,0.00,0,0.0,////,0.0,0,0.0,////,33.2,0.0,12.3,3.513
2015/07/01,15:10:01,235,245,257,5.2,5.7,6.3,31.5,75.1,996.7,0.00,0,0.0,////,0.0,0,0.0,////,33.2,0.0,12.3,3.511
2015/07/01,15:20:01,240,245,250,3.5,5.1,7.6,31.5,75.4,996.6,0.00,0,0.0,////,0.0,0,0.0,////,33.2,0.0,12.3,3.511
2015/07/01,15:30:01,228,235,243,4.7,5.2,5.5,30.9,77.1,996.5,0.00,0,0.0,////,0.0,0,0.0,////,32.2,0.0,12.3,3.511
2015/07/01,15:40:01,222,225,227,5.2,6.5,7.7,31.0,77.5,996.5,0.00,0,0.0,////,0.0,0,0.0,////,32.4,0.0,12.3,3.511
2015/07/01,15:50:01,227,230,236,7.2,7.7,8.0,31.2,76.9,996.5,0.00,0,0.0,////,0.0,0,0.0,////,32.5,0.0,12.3,3.510
2015/07/01,16:00:01,220,223,230,7.6,8.1,8.9,30.9,77.2,996.4,0.00,0,0.0,////,0.0,0,0.0,////,32.2,0.0,12.3,3.511
2015/07/01,16:10:01,223,226,229,6.2,7.4,8.2,30.9,77.4,996.3,0.00,0,0.0,////,0.0,0,0.0,////,32.4,0.0,12.3,3.511
2015/07/01,16:20:01,214,228,240,4.5,5.9,7.1,31.1,77.0,996.3,0.00,0,0.0,////,0.0,0,0.0,////,32.2,0.0,12.3,3.511
2015/07/01,16:30:01,225,231,232,5.2,8.7,10.3,31.0,77.6,996.1,0.00,0,0.0,////,0.0,0,0.0,////,32.4,0.0,12.3,3.510
2015/07/01,16:40:01,232,236,244,7.8,8.3,8.9,31.0,77.6,996.3,0.00,0,0.0,////,0.0,0,0.0,////,32.0,0.0,12.3,3.511
2015/07/01,16:50:01,232,233,235,4.5,5.4,6.0,30.9,78.0,996.2,0.00,0,0.0,////,0.0,0,0.0,////,32.4,0.0,12.3,3.510
2015/07/01,17:00:01,204,233,254,3.3,4.9,6.3,30.9,77.8,996.2,0.00,0,0.0,////,0.0,0,0.0,////,31.8,0.0,12.3,3.511
2015/07/01,17:10:01,243,244,247,5.3,5.9,6.5,30.9,77.9,996.2,0.00,0,0.0,////,0.0,0,0.0,////,31.8,0.0,12.3,3.510
2015/07/01,17:20:01,227,233,241,6.0,6.5,6.8,30.8,78.7,996.3,0.00,0,0.0,////,0.0,0,0.0,////,31.8,0.0,12.3,3.511
2015/07/01,17:30:01,218,230,241,6.4,6.8,7.1,30.7,78.5,996.3,0.00,0,0.0,////,0.0,0,0.0,////,31.5,0.0,12.3,3.511
2015/07/01,17:40:01,215,227,247,4.9,6.1,7.9,30.5,78.5,996.3,0.00,0,0.0,////,0.0,0,0.0,////,31.0,0.0,12.3,3.513
2015/07/01,17:50:01,223,241,263,5.0,5.4,5.8,30.5,78.9,996.4,0.00,0,0.0,////,0.0,0,0.0,////,30.8,0.0,12.3,3.511
2015/07/01,18:00:01,222,231,236,6.1,6.8,7.3,30.2,79.3,996.3,0.00,0,0.0,////,0.0,0,0.0,////,30.1,0.0,12.3,3.511
2015/07/01,18:10:01,233,239,245,4.6,4.9,5.4,30.1,79.5,996.4,0.00,0,0.0,////,0.0,0,0.0,////,30.0,0.0,12.3,3.511
2015/07/01,18:20:01,230,238,247,5.0,5.7,6.7,30.0,80.1,996.5,0.00,0,0.0,////,0.0,0,0.0,////,29.8,0.0,12.3,3.513
2015/07/01,18:30:01,239,247,257,7.8,8.0,8.5,29.8,80.5,996.7,0.00,0,0.0,////,0.0,0,0.0,////,29.4,0.0,12.3,3.511
2015/07/01,18:40:01,235,247,266,3.5,3.7,4.1,29.7,81.5,996.8,0.00,0,0.0,////,0.0,0,0.0,////,29.1,0.0,12.3,3.513
2015/07/01,18:50:01,227,238,254,2.5,3.3,3.8,29.7,81.7,997.1,0.00,0,0.0,////,0.0,0,0.0,////,29.1,0.0,12.3,3.510
2015/07/01,19:00:01,211,219,231,5.7,6.6,7.3,29.6,80.5,997.2,0.00,0,0.0,////,0.0,0,0.0,////,28.9,0.0,12.3,3.513
2015/07/01,19:10:01,220,221,223,4.4,6.0,7.4,29.6,80.5,997.2,0.00,0,0.0,////,0.0,0,0.0,////,28.7,0.0,12.3,3.511
2015/07/01,19:20:01,215,226,240,5.1,5.2,5.4,29.6,79.7,997.4,0.00,0,0.0,////,0.0,0,0.0,////,28.7,0.0,12.3,3.515
2015/07/01,19:30:01,234,242,250,5.1,7.4,8.9,29.6,81.1,997.5,0.00,0,0.0,////,0.0,0,0.0,////,28.7,0.0,12.3,3.513
2015/07/01,19:40:01,210,227,239,4.9,5.2,5.4,29.6,82.4,997.6,0.00,0,0.0,////,0.0,0,0.0,////,28.7,0.0,12.3,3.513
2015/07/01,19:50:01,214,228,243,3.3,3.7,4.2,29.4,83.4,997.8,0.00,0,0.0,////,0.0,0,0.0,////,28.7,0.0,12.3,3.513
2015/07/01,20:00:01,214,217,222,5.0,5.6,6.4,29.4,82.2,997.7,0.00,0,0.0,////,0.0,0,0.0,////,28.4,0.0,12.3,3.513
2015/07/01,20:10:01,204,215,228,2.2,3.1,4.0,29.5,81.1,997.8,0.00,0,0.0,////,0.0,0,0.0,////,28.6,0.0,12.3,3.511
2015/07/01,20:20:01,198,232,271,2.5,3.4,4.6,29.5,80.6,997.8,0.00,0,0.0,////,0.0,0,0.0,////,28.6,0.0,12.3,3.513
2015/07/01,20:30:01,214,216,220,5.7,6.0,6.2,29.4,81.3,997.8,0.00,0,0.0,////,0.0,0,0.0,////,28.4,0.0,12.3,3.511
2015/07/01,20:40:01,227,233,244,3.4,3.8,4.2,29.3,80.8,998.0,0.00,0,0.0,////,0.0,0,0.0,////,28.4,0.0,12.3,3.513
2015/07/01,20:50:01,209,222,234,3.3,3.6,3.8,29.3,79.8,998.0,0.00,0,0.0,////,0.0,0,0.0,////,28.4,0.0,12.4,3.514
2015/07/01,21:00:01,208,213,222,3.4,4.2,5.2,29.5,79.9,998.1,0.00,0,0.0,////,0.0,0,0.0,////,28.6,0.0,12.3,3.511
2015/07/01,21:10:01,220,225,230,2.7,3.1,3.8,29.4,80.3,998.2,0.00,0,0.0,////,0.0,0,0.0,////,28.6,0.0,12.3,3.513
2015/07/01,21:20:01,235,238,243,5.3,5.6,6.0,29.4,80.1,998.3,0.00,0,0.0,////,0.0,0,0.0,////,28.4,0.0,12.3,3.511
2015/07/01,21:30:01,214,221,233,4.7,5.0,5.4,29.4,79.4,998.5,0.00,0,0.0,////,0.0,0,0.0,////,28.4,0.0,12.3,3.513
2015/07/01,21:40:01,203,211,221,3.6,5.0,6.7,29.4,80.6,998.6,0.00,0,0.0,////,0.0,0,0.0,////,28.7,0.0,12.3,3.513
2015/07/01,21:50:01,198,199,202,5.3,5.5,5.7,29.2,81.7,998.6,0.00,0,0.0,////,0.0,0,0.0,////,28.4,0.0,12.3,3.513
2015/07/01,22:00:01,225,236,246,4.4,5.3,6.3,29.1,82.2,998.7,0.00,0,0.0,////,0.0,0,0.0,////,28.2,0.0,12.3,3.513
2015/07/01,22:10:01,213,220,229,2.5,2.8,3.1,29.1,82.9,998.8,0.00,0,0.0,////,0.0,0,0.0,////,28.2,0.0,12.3,3.514
2015/07/01,22:20:01,213,218,223,3.6,4.0,4.4,29.0,83.0,998.8,0.00,0,0.0,////,0.0,0,0.0,////,28.1,0.0,12.3,3.513
2015/07/01,22:30:01,211,214,221,2.2,2.5,2.8,28.9,83.4,998.8,0.00,0,0.0,////,0.0,0,0.0,////,27.9,0.0,12.3,3.513
2015/07/01,22:40:01,192,201,211,3.7,4.8,5.7,28.9,83.5,998.8,0.00,0,0.0,////,0.0,0,0.0,////,28.1,0.0,12.3,3.511
2015/07/01,22:50:01,225,236,246,3.8,4.7,5.5,28.9,83.6,998.8,0.00,0,0.0,////,0.0,0,0.0,////,28.1,0.0,12.3,3.511
2015/07/01,23:00:01,216,227,235,2.9,3.2,3.5,28.9,83.2,998.8,0.00,0,0.0,////,0.0,0,0.0,////,27.9,0.0,12.3,3.518
2015/07/01,23:10:01,205,223,236,4.0,4.6,5.3,28.9,83.1,998.6,0.00,0,0.0,////,0.0,0,0.0,////,27.9,0.0,12.3,3.515
2015/07/01,23:20:01,205,211,219,3.8,4.2,4.5,28.9,82.9,998.6,0.00,0,0.0,////,0.0,0,0.0,////,28.1,0.0,12.3,3.516
2015/07/01,23:30:01,209,213,216,6.6,7.3,7.7,28.9,83.0,998.5,0.00,0,0.0,////,0.0,0,0.0,////,27.9,0.0,12.3,3.511
2015/07/01,23:40:01,203,206,212,2.2,2.9,3.9,28.8,83.1,998.4,0.00,0,0.0,////,0.0,0,0.0,////,28.1,0.0,12.3,3.513
2015/07/01,23:50:01,223,224,225,1.9,2.2,2.6,28.8,83.7,998.4,0.00,0,0.0,////,0.0,0,0.0,////,27.9,0.0,12.3,3.513
2015/07/02,00:00:01,211,219,227,3.2,3.8,4.9,28.8,83.4,998.4,0.00,0,0.0,////,0.0,0,0.0,////,27.9,0.0,12.3,3.513
2015/07/02,00:10:01,188,203,216,6.8,7.4,8.1,28.8,84.0,998.3,0.00,0,0.0,////,0.0,0,0.0,////,27.7,0.0,12.3,3.513
2015/07/02,00:20:01,216,230,238,1.9,2.4,2.9,28.9,84.4,998.4,0.00,0,0.0,////,0.0,0,0.0,////,27.9,0.0,12.3,3.513
2015/07/02,00:30:01,243,243,244,3.6,4.1,4.6,28.8,84.3,998.4,0.00,0,0.0,////,0.0,0,0.0,////,27.7,0.0,12.3,3.511
2015/07/02,00:40:01,234,239,244,1.7,2.1,2.8,28.8,84.6,998.3,0.00,0,0.0,////,0.0,0,0.0,////,27.7,0.0,12.3,3.513
2015/07/02,00:50:01,227,231,234,5.1,5.5,6.2,28.7,85.1,998.2,0.00,0,0.0,////,0.0,0,0.0,////,27.7,0.0,12.3,3.511
2015/07/02,01:00:01,213,222,234,4.8,5.1,5.3,28.7,84.7,998.2,0.00,0,0.0,////,0.0,0,0.0,////,27.7,0.0,12.3,3.513
2015/07/02,01:10:01,219,226,230,2.9,3.1,3.3,28.7,84.9,998.2,0.00,0,0.0,////,0.0,0,0.0,////,27.7,0.0,12.2,3.513
2015/07/02,01:20:01,223,232,238,4.5,5.1,5.8,28.7,85.0,998.1,0.00,0,0.0,////,0.0,0,0.0,////,27.9,0.0,12.3,3.513
2015/07/02,01:30:01,207,211,216,3.5,4.4,5.7,28.7,85.6,998.0,0.00,0,0.0,////,0.0,0,0.0,////,27.7,0.0,12.3,3.514
2015/07/02,01:40:01,212,225,234,3.7,3.9,4.2,28.6,85.9,998.0,0.00,0,0.0,////,0.0,0,0.0,////,27.7,0.0,12.3,3.513
2015/07/02,01:50:01,215,218,219,3.5,5.1,6.2,28.6,86.0,998.0,0.00,0,0.0,////,0.0,0,0.0,////,27.5,0.0,12.3,3.510
2015/07/02,02:00:01,233,236,239,4.9,5.7,6.2,28.6,86.2,998.0,0.00,0,0.0,////,0.0,0,0.0,////,27.5,0.0,12.3,3.513
2015/07/02,02:10:01,209,211,212,2.8,3.5,4.2,28.6,86.5,997.9,0.00,0,0.0,////,0.0,0,0.0,////,27.7,0.0,12.3,3.511
2015/07/02,02:20:01,217,230,239,2.3,3.7,4.7,28.5,86.3,997.8,0.00,0,0.0,////,0.0,0,0.0,////,27.5,0.0,12.3,3.513
2015/07/02,02:30:01,199,207,221,2.4,2.8,3.2,28.5,86.5,997.8,0.00,0,0.0,////,0.0,0,0.0,////,27.5,0.0,12.3,3.511
2015/07/02,02:40:01,187,216,243,2.7,3.3,3.7,28.5,86.4,997.7,0.00,0,0.0,////,0.0,0,0.0,////,27.5,0.0,12.3,3.513
2015/07/02,02:50:01,215,223,227,2.9,3.3,3.6,28.5,86.5,997.7,0.00,0,0.0,////,0.0,0,0.0,////,27.4,0.0,12.3,3.511
2015/07/02,03:00:01,235,242,248,3.1,3.3,3.7,28.4,85.8,997.6,0.00,0,0.0,////,0.0,0,0.0,////,27.4,0.0,12.3,3.511
2015/07/02,03:10:01,205,215,227,4.2,4.7,5.4,28.4,85.7,997.5,0.00,0,0.0,////,0.0,0,0.0,////,27.5,0.0,12.3,3.513
2015/07/02,03:20:01,214,226,234,2.5,2.9,3.3,28.4,85.8,997.5,0.00,0,0.0,////,0.0,0,0.0,////,27.4,0.0,12.3,3.513
2015/07/02,03:30:01,208,223,237,2.3,2.5,2.7,28.4,85.2,997.5,0.00,0,0.0,////,0.0,0,0.0,////,27.5,0.0,12.3,3.511
2015/07/02,03:40:01,205,207,210,3.5,3.8,4.3,28.4,84.9,997.3,0.00,0,0.0,////,0.0,0,0.0,////,27.5,0.0,12.3,3.513
2015/07/02,03:50:01,206,221,234,2.1,2.9,3.5,28.5,84.9,997.2,0.00,0,0.0,////,0.0,0,0.0,////,27.4,0.0,12.3,3.513
2015/07/02,04:00:01,205,214,225,1.7,2.1,2.5,28.3,84.7,997.3,0.00,0,0.0,////,0.0,0,0.0,////,27.4,0.0,12.3,3.513
2015/07/02,04:10:01,195,208,215,5.0,5.3,5.9,28.4,84.6,997.2,0.00,0,0.0,////,0.0,0,0.0,////,27.4,0.0,12.3,3.513
2015/07/02,04:20:01,201,210,215,2.9,3.4,3.7,28.4,84.2,997.2,0.00,0,0.0,////,0.0,0,0.0,////,27.4,0.0,12.3,3.513
2015/07/02,04:30:01,213,215,216,5.4,5.7,6.2,28.5,84.5,997.3,0.00,0,0.0,////,0.0,0,0.0,////,27.5,0.0,12.3,3.513
2015/07/02,04:40:01,221,223,227,2.2,2.9,3.8,28.5,83.9,997.3,0.00,0,0.0,////,0.0,0,0.0,////,27.5,0.0,12.3,3.513
2015/07/02,04:50:01,212,223,229,3.6,4.3,5.0,28.5,84.6,997.4,0.00,0,0.0,////,0.0,0,0.0,////,27.5,0.0,12.3,3.514
2015/07/02,05:00:01,229,239,248,2.8,3.3,3.8,28.5,84.4,997.4,0.00,0,0.0,////,0.0,0,0.0,////,27.5,0.0,12.3,3.513
2015/07/02,05:10:01,213,216,219,3.9,4.3,4.6,28.5,85.0,997.5,0.00,0,0.0,////,0.0,0,0.0,////,27.5,0.0,12.3,3.514
2015/07/02,05:20:01,217,223,233,4.9,5.6,6.0,28.4,85.5,997.5,0.00,0,0.0,////,0.0,0,0.0,////,27.4,0.0,12.3,3.511
2015/07/02,05:30:01,209,221,227,4.0,4.3,4.6,28.4,85.5,997.8,0.00,0,0.0,////,0.0,0,0.0,////,27.2,0.0,12.3,3.513
2015/07/02,05:40:01,223,225,227,3.5,3.8,4.3,28.4,84.9,997.8,0.00,0,0.0,////,0.0,0,0.0,////,27.5,0.0,12.3,3.513
2015/07/02,05:50:01,210,214,221,2.7,4.3,5.7,28.4,84.6,997.8,0.00,0,0.0,////,0.0,0,0.0,////,27.4,0.0,12.3,3.511
2015/07/02,06:00:01,201,204,207,3.2,3.6,3.8,28.4,84.7,997.8,0.00,0,0.0,////,0.0,0,0.0,////,27.5,0.0,12.3,3.513
2015/07/02,06:10:01,204,207,210,3.2,4.3,5.0,28.4,84.3,998.0,0.00,0,0.0,////,0.0,0,0.0,////,27.5,0.0,12.3,3.513
2015/07/02,06:20:01,193,203,220,5.4,5.6,5.9,28.5,83.7,998.1,0.00,0,0.0,////,0.0,0,0.0,////,28.1,0.0,12.3,3.511
2015/07/02,06:30:01,217,233,243,3.0,3.6,4.1,28.6,83.2,998.2,0.00,0,0.0,////,0.0,0,0.0,////,28.2,0.0,12.3,3.513
2015/07/02,06:40:01,208,217,226,2.9,3.4,3.8,28.7,82.5,998.2,0.00,0,0.0,////,0.0,0,0.0,////,28.7,0.0,12.3,3.513
2015/07/02,06:50:01,202,220,231,3.8,4.2,4.6,28.9,81.8,998.3,0.00,0,0.0,////,0.0,0,0.0,////,29.1,0.0,12.3,3.510
2015/07/02,07:00:01,212,212,213,5.6,5.9,6.4,29.0,81.1,998.3,0.00,0,0.0,////,0.0,0,0.0,////,29.6,0.0,12.3,3.513
2015/07/02,07:10:01,194,197,200,4.4,5.1,5.5,29.1,80.3,998.4,0.00,0,0.0,////,0.0,0,0.0,////,30.0,0.0,12.3,3.511
2015/07/02,07:20:01,210,212,214,4.6,5.2,5.8,29.3,80.4,998.4,0.00,0,0.0,////,0.0,0,0.0,////,30.3,0.0,12.3,3.511
2015/07/02,07:30:01,212,231,249,1.5,1.9,2.6,29.3,80.8,998.5,0.00,0,0.0,////,0.0,0,0.0,////,30.6,0.0,12.3,3.513
2015/07/02,07:40:01,175,209,229,1.6,2.1,2.8,29.5,80.1,998.5,0.00,0,0.0,////,0.0,0,0.0,////,30.8,0.0,12.3,3.511
2015/07/02,07:50:01,217,225,231,4.8,5.5,6.5,29.7,80.0,998.5,0.00,0,0.0,////,0.0,0,0.0,////,31.2,0.0,12.3,3.513
2015/07/02,08:00:01,215,225,236,3.4,4.1,5.0,29.8,78.4,998.5,0.00,0,0.0,////,0.0,0,0.0,////,31.5,0.0,12.3,3.511
2015/07/02,08:10:01,193,201,209,6.0,6.5,6.7,29.9,77.6,998.4,0.00,0,0.0,////,0.0,0,0.0,////,31.5,0.0,12.3,3.511
2015/07/02,08:20:01,214,219,229,3.5,4.1,4.5,30.0,78.3,998.3,0.00,0,0.0,////,0.0,0,0.0,////,31.7,0.0,12.3,3.511
2015/07/02,08:30:01,202,218,231,3.4,4.2,5.2,30.1,76.9,998.3,0.00,0,0.0,////,0.0,0,0.0,////,31.7,0.0,12.3,3.511
2015/07/02,08:40:01,196,206,215,6.8,8.1,9.3,30.2,76.3,998.2,0.00,0,0.0,////,0.0,0,0.0,////,31.8,0.0,12.3,3.511
2015/07/02,08:50:01,192,208,224,2.5,3.4,4.6,30.3,75.5,998.1,0.00,0,0.0,////,0.0,0,0.0,////,31.7,0.0,12.3,3.511
2015/07/02,09:00:01,187,206,220,3.3,3.9,4.3,30.2,76.0,998.2,0.00,0,0.0,////,0.0,0,0.0,////,31.7,0.0,12.3,3.511
2015/07/02,09:10:01,223,226,230,1.6,1.8,2.1,30.3,76.2,998.2,0.00,0,0.0,////,0.0,0,0.0,////,31.8,0.0,12.3,3.513
2015/07/02,09:20:01,209,212,215,4.9,5.2,5.6,30.5,75.2,998.2,0.00,0,0.0,////,0.0,0,0.0,////,32.0,0.0,12.3,3.515
2015/07/02,09:30:01,211,216,224,8.6,9.0,9.3,30.5,74.8,998.3,0.00,0,0.0,////,0.0,0,0.0,////,32.4,0.0,12.3,3.510
2015/07/02,09:40:01,209,216,224,4.4,4.7,5.3,30.8,74.6,998.3,0.00,0,0.0,////,0.0,0,0.0,////,32.7,0.0,12.3,3.513
2015/07/02,09:50:01,210,213,218,3.4,3.8,4.5,31.1,73.3,998.2,0.00,0,0.0,////,0.0,0,0.0,////,33.6,0.0,12.3,3.511
2015/07/02,10:00:01,215,221,224,4.1,5.2,6.1,31.3,72.5,998.3,0.00,0,0.0,////,0.0,0,0.0,////,33.9,0.0,12.3,3.511
2015/07/02,10:10:01,216,232,250,2.2,3.0,3.7,31.2,73.0,998.2,0.00,0,0.0,////,0.0,0,0.0,////,33.7,0.0,12.3,3.511
2015/07/02,10:20:01,226,227,229,4.2,4.7,5.1,31.4,72.8,998.2,0.00,0,0.0,////,0.0,0,0.0,////,33.7,0.0,12.3,3.513
2015/07/02,10:30:01,208,218,227,2.8,3.1,3.4,31.5,71.0,998.2,0.00,0,0.0,////,0.0,0,0.0,////,34.1,0.0,12.3,3.511
2015/07/02,10:40:01,197,199,202,4.8,5.3,5.8,31.7,72.7,998.3,0.00,0,0.0,////,0.0,0,0.0,////,34.4,0.0,12.3,3.511
2015/07/02,10:50:01,224,236,250,4.7,5.1,5.6,31.9,71.4,998.2,0.00,0,0.0,////,0.0,0,0.0,////,35.0,0.0,12.3,3.511
2015/07/02,11:00:01,224,232,238,3.2,3.7,4.3,32.0,70.9,998.3,0.00,0,0.0,////,0.0,0,0.0,////,35.0,0.0,12.3,3.513